Location: Armstrong
(40.9123°N, 82.0110°W)
Time: 08:21:53
(UTC+00:00)

Cosmos 1553 Rocket - Pass Details

Date: 29 October 2020
Orbit: 940 x 1009 km, 82.9° (Epoch: 29 November)

Event Time Altitude Azimuth Distance (km) Brightness Sun altitude
Rises 22:53:27 0° 164° (SSE) 3,713 7.0 -5.6°
Reaches altitude 10° 22:56:07 10° 158° (SSE) 2,761 6.3 -6.1°
Maximum altitude 23:02:01 42° 89° (E) 1,374 4.4 -7.2°
Drops below altitude 10° 23:07:51 10° 21° (NNE) 2,737 6.0 -8.3°
Sets 23:10:28 0° 15° (NNE) 3,678 6.8 -8.8°
